EW1867 Weather Reports


time (UTC)temp
C
wind
direction
speed
KPH
gust
KPH
rain 1hr
cm
rain 24hr
cm
rain mn
cm
humidity
%
barometer
mb
20260506113237 14 101 1.6 3.2 0.00 0.00 0.00 84 1018.3
20260506112337 14 0 0.0 3.2 0.00 0.00 0.00 84 1018.3
20260506104737 14 0 0.0 3.2 0.00 0.00 0.00 82 1018.1
20260506102937 14 0 0.0 3.2 0.00 0.00 0.00 82 1017.9
20260506102037 14 111 0.0 3.2 0.00 0.00 0.00 82 1017.7
20260506101137 14 103 0.0 4.8 0.00 0.00 0.00 82 1017.7
20260506095337 15 106 0.0 4.8 0.00 0.00 0.00 81 1017.5
20260506094437 15 0 0.0 3.2 0.00 0.00 0.00 81 1017.6
20260506093537 15 0 0.0 4.8 0.00 0.00 0.00 81 1017.6
20260506092637 15 125 0.0 3.2 0.00 0.00 0.00 81 1017.7
20260506091737 15 117 0.0 4.8 0.00 0.00 0.00 80 1017.6
20260506090838 15 0 0.0 3.2 0.00 0.00 0.00 80 1017.6
20260506085937 15 112 1.6 3.2 0.00 0.00 0.00 80 1017.6
20260506085037 15 105 0.0 3.2 0.00 0.00 0.00 80 1017.7
20260506084137 15 110 0.0 3.2 0.00 0.00 0.00 80 1017.6
20260506083237 15 106 1.6 3.2 0.00 0.00 0.00 80 1017.7
20260506082337 15 109 0.0 6.4 0.00 0.00 0.00 80 1017.7
20260506081437 15 0 0.0 1.6 0.00 0.00 0.00 81 1017.6
20260506080537 15 0 0.0 1.6 0.00 0.00 0.00 80 1017.6
20260506072037 15 0 0.0 0.0 0.00 0.00 0.00 80 1017.2
20260506070238 15 0 0.0 0.0 0.00 0.03 0.00 80 1017.1
20260506061737 16 0 0.0 0.0 0.00 0.08 0.03 80 1016.6
20260506060837 16 0 0.0 1.6 0.00 0.10 0.03 80 1016.6
20260506050537 16 0 0.0 3.2 0.00 0.36 0.03 79 1016.1
20260506044737 16 199 0.0 4.8 0.00 0.36 0.03 78 1016.0
20260506043837 16 168 0.0 4.8 0.00 0.36 0.03 78 1016.0
20260506042037 16 217 1.6 4.8 0.00 0.46 0.03 77 1015.6
20260506041138 17 220 1.6 6.4 0.00 0.56 0.03 77 1015.4
20260506040237 17 172 0.0 6.4 0.00 0.71 0.03 78 1015.3
20260506035337 17 0 0.0 6.4 0.00 0.81 0.03 78 1015.3
20260506034437 17 0 0.0 4.8 0.00 0.89 0.03 78 1015.4
20260506033537 17 107 1.6 3.2 0.00 0.94 0.03 77 1015.1
20260506032637 17 108 1.6 3.2 0.00 0.99 0.03 77 1015.1
20260506031737 17 106 1.6 9.7 0.00 1.09 0.03 76 1015.0
20260506030837 17 105 1.6 9.7 0.00 1.14 0.03 76 1014.8
20260506025937 17 127 1.6 3.2 0.00 1.19 0.03 76 1014.6
20260506025038 17 102 1.6 4.8 0.00 1.24 0.03 76 1014.6
20260506024137 17 102 0.0 4.8 0.00 1.27 0.03 76 1014.6
20260506023237 17 102 3.2 6.4 0.00 1.30 0.03 75 1014.4
20260506022337 17 106 3.2 11.3 0.00 1.32 0.03 75 1014.4
20260506021437 17 108 1.6 8.0 0.00 1.35 0.03 75 1014.3
20260506020538 17 108 1.6 9.7 0.00 1.35 0.03 74 1014.2
20260506014737 18 97 1.6 8.0 0.00 1.47 0.03 74 1014.2
20260506013837 18 100 3.2 8.0 0.00 1.50 0.03 73 1014.1
20260506012938 18 99 3.2 9.7 0.00 1.55 0.03 72 1014.0
20260506012037 18 100 4.8 16.1 0.00 1.57 0.03 72 1014.0
20260506011137 18 101 4.8 16.1 0.00 1.60 0.03 71 1014.0
20260506010237 18 91 3.2 9.7 0.00 1.60 0.03 70 1013.9
20260506005337 18 99 3.2 8.0 0.00 1.60 0.03 70 1013.8
20260506004437 19 105 1.6 6.4 0.00 1.63 0.03 69 1013.9
20260506003538 19 98 1.6 4.8 0.00 1.65 0.03 68 1013.7
20260506000838 19 88 3.2 6.4 0.00 1.68 0.03 66 1013.6
20260505235938 19 94 1.6 8.0 0.00 1.73 0.03 66 1013.6
20260505235037 20 95 1.6 4.8 0.00 1.78 0.03 64 1013.5
20260505234137 20 105 3.2 6.4 0.00 1.78 0.03 64 1013.6
20260505233237 20 106 1.6 4.8 0.00 1.80 0.03 62 1013.5
20260505232337 21 182 1.6 4.8 0.00 1.83 0.03 60 1013.4
20260505231437 22 143 1.6 8.0 0.00 1.85 0.03 59 1013.6
20260505230537 22 91 1.6 4.8 0.00 1.91 0.03 61 1013.6
20260505225637 21 234 1.6 4.8 0.00 1.96 0.03 62 1013.7
20260505224737 21 271 1.6 6.4 0.00 1.98 0.03 61 1013.7
20260505223837 21 244 1.6 6.4 0.00 1.98 0.03 61 1013.9
20260505222037 21 207 1.6 4.8 0.00 2.03 0.03 65 1014.0
20260505221137 20 211 0.0 4.8 0.00 2.06 0.03 67 1014.1
20260505220238 19 0 0.0 1.6 0.00 2.08 0.03 67 1014.2
20260505215338 19 0 0.0 4.8 0.00 2.08 0.03 66 1014.2
20260505213537 18 118 1.6 6.4 0.00 2.11 0.03 68 1014.4
20260505212637 19 202 0.0 6.4 0.00 2.11 0.03 67 1014.4
20260505211737 18 195 1.6 4.8 0.00 2.11 0.03 69 1014.4
20260505210837 19 228 1.6 6.4 0.00 2.11 0.03 67 1014.5
20260505204138 18 134 0.0 6.4 0.00 2.11 0.03 71 1014.4
20260505203237 18 103 1.6 6.4 0.00 2.11 0.03 73 1014.5
20260505201437 18 216 0.0 6.4 0.00 2.11 0.03 73 1014.6
20260505200538 17 204 0.0 3.2 0.00 2.11 0.03 72 1014.6
20260505195638 17 143 1.6 3.2 0.00 2.11 0.03 72 1014.7
20260505194737 18 0 0.0 4.8 0.00 2.13 0.03 73 1014.7
20260505193837 17 0 0.0 1.6 0.00 2.13 0.03 74 1014.8
20260505191137 16 154 1.6 3.2 0.00 2.13 0.03 80 1014.8
20260505190237 17 222 1.6 4.8 0.00 2.13 0.03 78 1014.7
20260505185337 17 195 1.6 4.8 0.00 2.13 0.03 81 1014.6
20260505184437 16 101 1.6 6.4 0.00 2.13 0.03 80 1014.7
20260505183537 16 222 1.6 4.8 0.00 2.13 0.03 81 1014.6
20260505182638 16 136 0.0 4.8 0.00 2.13 0.03 84 1014.6
20260505181737 15 0 0.0 4.8 0.00 2.13 0.03 85 1014.5
20260505175937 15 0 0.0 3.2 0.00 2.16 0.03 86 1014.6
20260505175037 15 108 0.0 3.2 0.00 2.16 0.03 86 1014.3
20260505174137 15 176 1.6 4.8 0.00 2.16 0.03 87 1014.4
20260505173238 15 178 1.6 6.4 0.00 2.16 0.03 87 1014.3
20260505172337 14 104 1.6 6.4 0.00 2.16 0.03 88 1014.2
20260505171437 14 103 1.6 6.4 0.00 2.16 0.03 88 1014.3
20260505170537 14 82 1.6 3.2 0.00 2.16 0.03 90 1014.3
20260505165637 13 101 1.6 4.8 0.00 2.16 0.03 90 1014.5
20260505164738 13 113 1.6 6.4 0.00 2.16 0.03 91 1014.5
20260505163837 13 118 1.6 8.0 0.00 2.16 0.03 93 1014.5
20260505162938 12 110 1.6 6.4 0.00 2.16 0.03 94 1014.4
20260505162038 12 104 1.6 6.4 0.00 2.16 0.03 95 1014.3
20260505161138 12 116 1.6 4.8 0.00 2.16 0.03 95 1014.3
20260505152637 12 0 0.0 4.8 0.00 2.16 0.03 96 1014.3
20260505151737 12 109 0.0 3.2 0.00 2.16 0.03 96 1014.2
20260505150838 11 103 1.6 4.8 0.00 2.16 0.03 96 1014.0
20260505140538 11 103 0.0 4.8 0.00 2.16 0.03 97 1013.4
20260505130238 11 110 1.6 4.8 0.00 2.16 0.03 97 1013.1
20260505123538 11 0 0.0 3.2 0.00 2.16 0.03 97 1012.9
20260505122638 11 0 0.0 3.2 0.00 2.16 0.03 97 1012.8
20260505121737 11 117 1.6 3.2 0.00 2.16 0.03 97 1012.8
20260505120837 11 112 1.6 4.8 0.00 2.16 0.03 97 1012.8
20260505115937 11 114 1.6 4.8 0.00 2.16 0.03 97 1012.9
20260505115038 11 116 1.6 6.4 0.00 2.16 0.03 97 1013.0
20260505114137 11 0 0.0 4.8 0.00 2.16 0.03 97 1013.1